This is the latest recevied weather packets stored in our database for station/object N4HAC. If no packets are shown the sender has not sent any weather packets the latest 10 day(s).
| Time | Temp. | Humidity | Pressure | Rain* | Wind** | Luminosity | Snow |
|---|---|---|---|---|---|---|---|
| 1777834947 | 15° C | 39% | 1010.6 hPa | 0 mm | - | 811 W/m² | - |
| 1777834645 | 14.44° C | 36% | 1010.6 hPa | 0 mm | - | 847 W/m² | - |
| 1777834340 | 14.44° C | 38% | 1010.4 hPa | 0 mm | - | 833 W/m² | - |
| 1777834035 | 14.44° C | 37% | 1010.6 hPa | 0 mm | - | 862 W/m² | - |
| 1777833731 | 14.44° C | 34% | 1010.8 hPa | 0 mm | - | 696 W/m² | - |
| 1777833428 | 14.44° C | 36% | 1010.8 hPa | 0 mm | - | 839 W/m² | - |
| 1777833125 | 14.44° C | 38% | 1010.7 hPa | 0 mm | - | 871 W/m² | - |
| 1777832823 | 14.44° C | 35% | 1010.7 hPa | 0 mm | - | 880 W/m² | - |
| 1777832522 | 13.89° C | 35% | 1010.8 hPa | 0 mm | - | 942 W/m² | - |
| 1777832218 | 14.44° C | 34% | 1010.8 hPa | 0 mm | - | 257 W/m² | - |
| 1777831915 | 13.33° C | 36% | 1010.8 hPa | 0 mm | - | 878 W/m² | - |
| 1777831611 | 14.44° C | 41% | 1010.8 hPa | 0 mm | - | 587 W/m² | - |
| 1777831310 | 13.89° C | 35% | 1010.8 hPa | 0 mm | - | 953 W/m² | - |
| 1777831006 | 13.89° C | 36% | 1010.8 hPa | 0 mm | - | 908 W/m² | - |
| 1777830704 | 13.33° C | 35% | 1010.8 hPa | 0 mm | - | 1001 W/m² | - |
| 1777830400 | 12.78° C | 35% | 1010.8 hPa | 0 mm | - | 304 W/m² | - |
| 1777830097 | 13.89° C | 34% | 1011.1 hPa | 0 mm | - | 284 W/m² | - |
| 1777829792 | 13.33° C | 36% | 1011.3 hPa | 0 mm | - | 297 W/m² | - |
| 1777829489 | 13.33° C | 39% | 1011.3 hPa | 0 mm | - | 963 W/m² | - |
| 1777829186 | 12.78° C | 35% | 1011.2 hPa | 0 mm | - | 169 W/m² | - |
| 1777828884 | 13.33° C | 37% | 1011.3 hPa | 0 mm | - | 1027 W/m² | - |
| 1777828580 | 12.78° C | 37% | 1011.5 hPa | 0 mm | - | 975 W/m² | - |
| 1777828277 | 13.89° C | 41% | 1011.4 hPa | 0 mm | - | 958 W/m² | - |
| 1777827974 | 12.22° C | 37% | 1011.2 hPa | 0 mm | - | 937 W/m² | - |
| 1777827671 | 11.67° C | 38% | 1011.4 hPa | 0 mm | - | 952 W/m² | - |
* Rain latest hour (hover to see other rain measurements)
** Current wind speed in m/s (hover to see current wind gust speed)